Location: Monrovia
(34.7865°N, 86.7139°W)
Time: 15:11:02
(UTC+00:00)

Resurs 1-4 Rocket - Pass Details

Date: 14 July 2020
Orbit: 800 x 814 km, 98.6° (Epoch: 12 August)

Event Time Altitude Azimuth Distance (km) Brightness Sun altitude
Rises 06:29:29 0° 26° (NNE) 3,338 6.3 -32.9°
Reaches altitude 10° 06:32:09 10° 38° (NE) 2,400 5.2 -32.8°
Enters shadow 06:35:35 26° 75° (ENE) 1,541 3.7 -32.7°
